Flag for Canada Weather past 2 weeks in North Bay, Ontario, Canada

Now
46 °F

Sunny.


Feels Like: 45 °F
Forecast: 35 / 55 °F
Wind: 3 mph from Northwest

Location: North Bay

Current Time: Oct 23, 2014 at 11:20:11 AM

Latest Report: Oct 23, 2014 at 10:00 AM


Visibility: 15 mi

Pressure: 30.23 "Hg

Humidity: 66%

Dew point: 36 °F

Location of North BayLocation

Historic Weather in North Bay — Graph

°F

North Bay temperature yesterday

Maximum temperature yesterday: 50 °F (at 3:00 PM)
Minimum temperature yesterday: 30 °F (at 6:00 AM)
Average temperature yesterday: 39 °F

Past Weeks' High & Low Weather Summary

 TemperatureHumidityPressure
High66 °F (Oct 14, 1:00 PM)100% (Oct 11, 4:00 AM)30.40 "Hg (Oct 11, 4:00 AM)
Low28 °F (Oct 23, 5:00 AM)47% (Oct 22, 3:00 PM)29.37 "Hg (Oct 17, 2:00 PM)
Average44 °F87%29.92 "Hg
* Reported Oct 8 9:00 AM — Oct 23 9:00 AM, North Bay, Weather by CustomWeather, © 2014

Note: Actual official high and low records may vary slightly from our data, if they occured in-between our weather recording intervals... More about our weather records

Advertising

North Bay weather history for previous 24 hours

 ConditionsComfort  
Time TempWeatherWind HumidityBarometerVisibility
9:00 AM
Oct 23
36 °FSunny.2 mph93%30.25 "Hg15 mi
8:00 AM28 °FClear.2 mph93%30.26 "Hg15 mi
7:00 AM36 °FClear.6 mph81%30.25 "Hg15 mi
6:00 AM30 °FClear.7 mph93%30.26 "Hg9 mi
5:00 AM28 °FClear.No wind100%30.26 "Hg9 mi
4:00 AM30 °FClear.No wind93%30.25 "Hg9 mi
3:00 AM36 °FClear.2 mph75%30.27 "Hg9 mi
2:00 AM41 °FClear.7 mph66%30.27 "Hg9 mi
1:00 AM41 °FClear.7 mph66%30.29 "Hg9 mi
12:00 AM43 °FClear.7 mph61%30.31 "Hg9 mi
11:00 PM
Oct 22
41 °FClear.7 mph66%30.32 "Hg9 mi
10:00 PM41 °FClear.7 mph70%30.34 "Hg15 mi
9:00 PM39 °FClear.5 mph75%30.34 "Hg15 mi
8:00 PM43 °FClear.8 mph66%30.33 "Hg15 mi
7:00 PM43 °FSunny.6 mph66%30.33 "Hg15 mi
6:00 PM48 °FSunny.5 mph58%30.33 "Hg15 mi
5:00 PM50 °FPassing clouds.7 mph50%30.33 "Hg15 mi
4:00 PM50 °FPassing clouds.7 mph50%30.34 "Hg15 mi
3:00 PM50 °FPassing clouds.5 mph47%30.35 "Hg15 mi
2:00 PM48 °FSunny.8 mph50%30.37 "Hg15 mi
1:00 PM46 °FSunny.5 mph57%30.37 "Hg15 mi
12:00 PM45 °FSunny.9 mph61%30.40 "Hg15 mi
11:00 AM39 °FSunny.9 mph75%30.40 "Hg15 mi
Weather by CustomWeather, © 2014

See weather overviewHow to use our weather pages